Regional Weather Roundup
Issued by NWS

Home | Current Version | Previous Version | Text Only | Print | Product List | Glossary On
Versions: 1 2 3 4 5 6 7 8 9 10 11 12 13 14 15 16 17 18 19 20 21 22 23 24 25 26 27 28 29 30 31 32 33 34 35 36 37 38 39 40 41 42 43 44 45 46 47 48 49 50
000
ASUS45 KBOI 230310
RWRID
WEATHER ROUNDUP FOR IDAHO
NATIONAL WEATHER SERVICE BOISE ID
800 PM MST MON DEC 22 2014

NOTE: "FAIR" INDICATES FEW OR NO CLOUDS BELOW 12000 FEET
WITH NO SIGNIFICANT WEATHER AND/OR OBSTRUCTIONS TO VISIBILITY

IDZ012-014-230400-
SOUTHWEST IDAHO


CITY           SKY/WX    TMP DP  RH WIND       PRES   REMARKS
BOISE          CLEAR     37  28  70 NW9       30.30R WCI  30
CALDWELL       CLEAR     36  25  64 S6        30.34R WCI  31
MOUNTAIN HOME  CLEAR     35  28  76 W12       30.29R WCI  26
$$

IDZ016-017-230400-
SOUTHCENTRAL IDAHO


CITY           SKY/WX    TMP DP  RH WIND       PRES   REMARKS
BURLEY         CLEAR     34  27  75 W16       30.18R WCI  24
JEROME         CLEAR     33  27  78 W21       30.21R WCI  21
TWIN FALLS     CLEAR     35  27  72 W17G25    30.22R WCI  25
$$

IDZ019>023-230400-
SOUTHEAST IDAHO


CITY           SKY/WX    TMP DP  RH WIND       PRES   REMARKS
IDAHO FALLS    CLEAR     28  22  78 E6        30.14R WCI  22
POCATELLO      CLEAR     31  22  69 N8        30.17R WCI  23
REXBURG        PTCLDY    31  18  58 E8        30.12R WCI  23
$$

IDZ006-010-011-018-031-032-230400-
CENTRAL IDAHO MOUNTAINS


CITY           SKY/WX    TMP DP  RH WIND       PRES   REMARKS
MCCALL         PTCLDY    24  20  84 CALM      30.25R
HAILEY         PTCLDY    28  14  54 N8        30.18  WCI  20
STANLEY          N/A     17  10  74 W3        30.22R
SALMON         CLOUDY    30  23  74 CALM      30.23R
CHALLIS        CLEAR     29  14  53 NW7       30.21R WCI  22
$$

IDZ002-004-006-007-026-230400-
NORTHERN IDAHO


CITY           SKY/WX    TMP DP  RH WIND       PRES   REMARKS
LEWISTON       PTCLDY    42  29  59 S5        30.33R
LOWELL           N/A     35  34  96 CALM      30.36R
COEUR D`ALENE  PTCLDY    36  28  75 CALM      30.27R
MULLAN PASS    CLOUDY    23  22  96 NW8       30.16R WCI  14
$$


USA.gov is the U.S. government's official web portal to all federal, state and local government web resources and services.